SCP
0 0 0 0 0 0 0 0 0 0 0 0 0 0 0 0 0 0 0 0 0 0 0 0 0 0 0 0 0 0 0 0 0 0 0 0 0 0 0 0 0 0 0 0 0 0 0 0 0
0 0 0 0 0 0 0 0 0 0 0 0 0 0 0 0 0 0 0 0 0 0 0 0 0 0 0 0 0 0 0 0 0 0 0 0 0 0 0 0 0 0 0 0 0 0 0 0 0
0 0 0 0 0 0 0 0 0 0 0 0 0 0 0 0 0 0 0 0 0 0 0 0 0 0 0 0 0 0 0 0 0 0 0 0 0 0 0 0 0 0 0 0 0 0 0 0 0
0 0 0 0 0 0 0 0 0 0 0 0 0 0 0 0 0 0 0 0 0 0 0 0 0 0 0 0 0 0 0 0 0 0 0 0 0 0 0 0 0 0 0 0 0 0 0 0 0
0 0 0 0 0 0 0 0 0 0 0 0 0 0 0 0 0 0 0 0 0 0 0 0 0 0 0 0 0 0 0 0 0 0 0 0 0 0 0 0 0 0 0 0 0 0 0 0 0
0 0 0 0 0 0 0 0 0 0 0 0 0 0 0 0 0 0 0 0 0 0 0 0 0 0 0 0 0 0 0 0 0 0 0 0 0 0 0 0 0 0 0 0 0 0 0 0 0
0 0 0 0 0 0 0 0 0 0 0 0 0 0 0 0 0 0 0 0 0 0 0 0 0 0 0 0 0 0 0 0 0 0 0 0 0 0 0 0 0 0 0 0 0 0 0 0 0
0 0 0 0 0 0 0 0 0 0 0 0 0 0 0 0 0 0 0 0 0 0 0 0 0 0 0 0 0 0 0 0 0 0 0 0 0 0 0 0 0 0 0 0 0 0 0 0 0
0 0 0 0 0 0 0 0 0 0 0 0 0 0 0 0 0 0 0 0 0 0 0 0 0 0 0 0 0 0 0 0 0 0 0 0 0 0 0 0 0 0 0 0 0 0 0 0 0
0 0 0 0 0 0 0 0 0 0 0 0 0 0 0 0 0 0 0 0 0 0 0 0 0 0 0 0 0 0 0 0 0 0 0 0 0 0 0 0 0 0 0 0 0 0 0 0 0
0 0 0 0 0 0 0 0 0 0 0 0 0 0 0 0 0 0 0 0 0 0 0 0 0 0 0 0 0 0 0 0 0 0 0 0 0 0 0 0 0 0 0 0 0 0 0 0 0
0 0 0 0 0 0 0 0 0 0 0 0 0 0 0 0 0 0 0 0 0 0 0 0 0 0 0 0 0 0 0 0 0 0 0 0 0 0 0 0 0 0 0 0 0 0 0 0 0
0 0 0 0 0 0 0 0 0 0 0 0 0 0 0 0 0 0 0 0 0 0 0 0 0 0 0 0 0 0 0 0 0 0 0 0 0 0 0 0 0 0 0 0 0 0 0 0 0
0 0 0 0 0 0 0 0 0 0 0 0 0 0 0 0 0 0 0 0 0 0 0 0 0 0 0 0 0 0 0 0 0 0 0 0 0 0 0 0 0 0 0 0 0 0 0 0 0
0 0 0 0 0 0 0 0 0 0 0 0 0 0 0 0 0 0 0 0 0 1 1 1 0 0 0 0 0 0 0 0 0 0 0 0 0 0 0 0 0 0 0 0 0 0 0 0 0
0 0 0 0 0 0 0 0 0 0 0 0 0 0 0 0 0 0 0 1 1 1 1 1 1 0 0 0 0 0 0 0 0 0 0 0 0 0 0 0 0 0 0 0 0 0 0 0 0
0 0 0 0 0 0 0 0 0 0 0 0 0 0 0 0 0 0 0 1 1 1 1 1 1 1 1 0 0 0 0 0 0 0 0 0 0 0 0 0 0 0 0 0 0 0 0 0 0
0 0 0 0 0 0 0 0 0 0 0 0 0 0 0 0 0 1 1 1 1 1 1 1 1 1 1 1 0 0 0 0 0 0 1 1 0 0 0 0 0 0 0 0 0 0 0 0 0
0 0 0 0 0 0 0 0 0 0 0 0 0 0 0 0 1 1 1 1 1 1 1 1 1 1 1 1 1 1 1 0 0 0 1 1 0 0 0 0 0 0 0 0 0 0 0 0 0
0 0 0 0 0 0 0 0 0 0 0 0 0 0 0 1 1 1 1 1 1 2 2 1 1 1 1 1 1 1 1 1 1 1 1 1 1 0 0 0 0 0 0 0 0 0 0 0 0
0 0 0 0 0 0 0 0 0 0 0 0 0 0 0 1 1 1 1 1 1 2 2 2 1 1 1 1 1 1 1 1 1 1 1 1 1 1 1 1 0 0 0 0 0 0 0 0 0
0 0 0 0 0 0 0 0 0 0 0 0 0 0 0 1 1 1 1 2 2 2 2 2 2 2 1 1 1 1 1 1 1 1 1 1 1 1 1 1 1 1 0 0 0 0 0 0 0
0 0 0 0 0 0 0 0 0 0 0 0 0 0 0 1 1 1 1 2 2 2 2 2 2 2 2 2 1 1 1 1 1 1 1 1 1 1 1 1 1 1 1 1 1 1 0 0 0
0 0 0 0 0 0 0 0 0 0 0 0 0 0 0 1 1 1 1 2 2 2 2 2 2 2 2 2 1 1 1 1 1 1 1 1 1 1 1 1 1 1 1 1 1 1 1 1 0
0 0 0 0 0 0 0 0 0 0 0 0 0 0 0 1 1 1 1 2 2 2 2 2 3 2 2 2 2 1 1 1 1 1 1 1 1 1 1 1 1 1 1 1 1 1 1 1 1
0 0 0 0 0 0 0 0 0 0 0 0 0 0 0 1 1 1 1 2 2 2 2 3 3 3 2 2 2 2 1 1 1 1 1 1 1 1 1 1 1 1 1 1 1 1 1 1 1
0 0 0 0 0 0 0 0 0 0 0 0 0 0 0 1 1 1 1 2 2 2 2 3 3 3 2 2 2 2 1 1 1 1 1 1 1 1 1 1 1 1 1 1 1 1 1 1 1
0 0 0 0 0 0 0 0 0 0 0 0 0 0 1 1 1 1 1 2 2 2 2 2 3 3 2 2 1 1 1 1 1 1 1 1 1 1 1 1 1 1 1 1 1 1 1 1 1
0 0 0 0 0 0 0 0 0 0 0 0 0 1 1 1 1 1 1 1 1 2 2 2 2 2 2 2 1 1 1 1 1 1 1 1 1 1 1 1 1 1 1 1 1 1 1 1 1
0 0 0 0 0 0 0 0 0 0 0 0 0 1 1 1 1 1 1 1 1 1 2 2 2 2 2 1 1 1 1 1 1 1 1 1 1 1 1 1 1 1 1 1 1 1 1 1 1
Wind_Speed
12 13 10 5 3 1 10 14 15 14 14 14 15 15 17 16 12 13 11 16 19 17 15 15 15 15 14 14 14 14 14 15 15 15 15 15 15 16 16 16 15 15 15 15 15 14 14 13 13
13 14 8 3 2 4 11 13 14 13 11 13 16 17 18 17 15 14 13 15 18 17 15 15 15 15 14 14 14 14 14 14 14 15 15 15 15 16 16 16 15 15 15 14 14 14 13 13 12
15 16 6 3 1 6 11 12 12 12 11 13 15 15 12 12 14 12 13 16 17 17 16 15 16 15 14 14 13 13 14 14 14 14 14 14 15 15 15 15 15 14 14 14 13 13 13 12 10
11 7 4 2 6 11 12 11 11 11 11 13 14 12 12 11 13 14 15 16 17 18 17 15 15 15 14 13 14 13 13 14 14 14 14 14 14 15 15 14 13 13 13 13 13 12 12 10 9
9 5 3 1 8 11 11 11 10 11 12 15 16 15 13 13 15 14 13 16 17 17 16 15 15 14 14 13 13 13 13 13 14 14 13 13 14 14 14 13 13 12 12 12 12 11 10 9 7
6 4 3 2 8 10 10 8 11 12 13 16 17 15 12 13 12 12 13 14 17 17 16 14 15 14 13 13 13 13 13 13 13 13 13 13 13 13 13 12 12 11 11 11 11 10 9 8 6
7 5 4 5 8 9 9 8 10 10 11 12 15 14 12 12 10 11 10 12 16 17 15 13 12 12 13 13 12 13 13 13 12 12 12 13 13 12 12 11 11 10 10 10 10 9 8 7 5
5 5 4 3 8 9 9 8 10 10 10 11 12 12 14 14 12 11 10 11 12 13 13 13 12 11 11 11 12 12 12 12 11 11 12 12 12 12 12 10 9 9 9 9 8 8 7 5 4
4 5 3 2 8 9 9 10 10 9 10 9 9 16 19 18 15 12 10 10 9 10 9 11 12 10 11 11 11 11 11 10 10 9 11 10 7 8 7 10 9 8 8 7 7 6 6 5 4
3 4 1 4 9 9 9 8 9 8 11 12 15 20 20 17 15 13 12 11 10 10 9 7 9 9 9 9 9 7 7 8 6 6 7 4 3 5 8 10 9 8 7 7 7 7 6 5 3
4 4 1 6 10 7 8 7 7 7 8 13 17 19 18 17 14 13 12 12 10 9 8 8 7 5 7 6 6 4 3 4 4 5 4 3 3 5 6 5 5 5 6 5 6 6 4 3 2
4 3 1 5 8 5 5 6 8 8 9 14 16 18 17 15 13 12 11 12 11 10 9 9 8 4 4 5 4 4 4 3 4 4 3 3 1 2 3 3 4 4 3 2 3 2 2 2 2
5 4 3 4 6 5 5 6 8 10 13 16 17 17 17 15 13 11 11 11 11 10 9 8 8 6 4 3 1 4 3 4 5 4 2 3 2 2 2 1 1 2 2 3 2 2 2 1 1
5 5 4 5 5 6 6 7 9 11 13 15 16 15 15 15 14 12 11 11 11 10 10 9 8 7 5 3 1 2 3 3 4 3 4 2 2 3 2 1 0 0 1 1 1 2 2 1 1
6 6 6 7 7 6 6 6 8 12 13 14 15 14 14 14 14 13 12 10 11 11 10 10 8 8 6 4 3 3 3 3 3 4 4 3 3 3 2 1 1 1 1 2 1 1 2 2 1
8 9 9 9 9 7 5 3 5 10 12 13 13 14 14 13 14 13 13 11 11 11 10 9 9 10 7 4 2 2 2 3 3 3 4 3 3 3 1 1 1 1 1 1 2 1 1 1 1
11 11 10 9 10 8 7 6 8 11 12 12 13 13 14 14 14 13 14 13 11 10 10 8 7 9 8 6 3 2 2 2 2 2 3 4 4 3 2 0 1 0 1 1 1 2 1 1 1
11 11 10 10 11 10 9 9 10 12 13 13 13 13 13 14 14 14 14 14 11 11 10 9 7 8 7 5 3 2 3 3 2 2 3 4 3 3 2 2 1 1 1 1 1 2 1 0 1
9 8 9 9 9 9 9 10 10 10 11 12 11 12 12 12 14 15 14 14 13 11 11 10 9 8 6 5 5 4 4 3 3 3 4 4 3 3 2 1 2 1 1 1 1 1 1 2 1
11 10 9 7 7 7 7 9 10 11 12 12 12 13 14 14 14 14 14 14 14 12 11 10 9 9 7 5 4 3 4 3 3 3 4 5 4 4 4 3 2 2 1 1 2 2 1 2 2
12 11 10 8 7 8 8 10 11 12 11 12 13 13 14 15 15 15 14 14 14 14 13 11 11 10 9 7 5 4 3 2 2 3 3 4 4 4 3 3 3 2 2 2 3 3 3 2 1
11 10 10 8 7 6 9 7 8 9 10 11 11 12 13 14 15 15 15 14 14 14 13 11 10 10 9 8 7 7 6 5 4 3 3 4 4 4 4 4 4 3 3 3 4 4 2 2 2
10 8 8 9 9 9 10 9 7 11 11 11 12 10 10 12 14 15 15 14 13 14 13 12 10 9 9 9 8 7 6 4 3 3 4 4 4 5 5 5 4 4 3 3 3 2 3 2 3
9 8 8 9 9 12 12 10 5 5 8 11 11 10 11 11 12 13 13 13 12 13 12 12 10 10 9 9 9 8 6 5 5 5 4 4 4 4 5 5 4 4 3 4 3 3 4 3 3
12 9 7 8 9 10 11 10 5 5 7 9 10 11 11 10 11 12 12 13 12 11 11 11 12 10 10 10 9 8 7 6 6 5 5 4 3 4 5 5 4 4 4 4 4 4 4 4 4
14 14 10 7 8 8 10 9 7 7 6 6 7 9 10 10 9 10 11 11 11 11 10 10 11 10 10 10 8 7 7 6 5 6 5 4 4 4 4 5 4 5 5 5 4 4 5 4 4
15 14 15 11 11 8 6 6 8 8 7 6 6 7 8 7 8 9 10 11 10 9 9 10 10 9 9 9 8 7 6 6 5 4 4 4 3 3 4 5 5 4 5 5 4 4 4 4 4
14 14 10 10 8 9 6 8 5 9 8 7 6 7 6 7 6 8 9 10 9 9 8 9 9 8 8 8 8 7 7 5 4 4 5 4 3 2 2 4 4 4 4 4 4 4 4 4 4
15 15 12 9 9 8 5 3 2 4 6 7 7 6 6 5 7 8 8 9 9 9 9 8 8 8 7 7 7 5 6 5 5 4 4 3 3 2 3 3 3 3 3 3 3 4 3 4 4
15 15 14 10 8 7 5 2 2 3 4 4 6 7 5 4 6 8 8 8 7 7 8 8 7 7 7 6 6 5 5 5 5 4 4 3 3 3 3 3 3 4 4 4 4 4 4 4 4
Wind_Direction
279 268 248 258 282 291 74 72 71 68 64 61 59 64 61 53 69 91 110 109 110 111 112 108 104 102 100 99 98 98 98 97 97 97 96 94 97 102 101 102 102 102 101 100 100 99 98 97 97
284 280 264 239 296 74 75 75 73 75 78 76 69 68 70 71 84 100 108 110 113 114 112 107 107 104 102 101 100 100 99 98 99 99 98 97 97 99 99 100 101 101 101 101 101 100 99 98 100
274 269 272 223 130 80 80 79 85 88 85 83 77 66 64 83 92 103 116 116 112 108 105 109 109 106 104 103 102 101 101 100 100 99 99 99 100 100 100 100 100 100 101 102 102 101 100 100 102
272 266 253 276 72 75 88 92 97 95 87 87 87 78 73 82 99 117 126 118 112 109 109 110 110 107 105 104 103 102 102 102 101 100 100 100 101 101 101 100 101 101 102 103 102 102 102 103 104
258 267 280 11 81 83 83 93 100 94 82 82 88 93 87 91 110 124 121 116 112 110 113 114 112 107 105 105 105 105 105 105 105 103 102 102 102 103 103 103 102 103 103 104 105 106 107 108 108
273 266 274 108 92 88 87 91 94 92 98 101 105 103 99 112 122 123 117 117 115 113 112 114 113 111 107 106 107 108 108 109 108 108 108 107 105 105 107 107 106 106 105 107 109 110 111 113 114
273 290 261 143 113 102 94 89 88 99 95 99 109 110 120 129 128 116 115 116 115 117 121 125 123 117 112 110 112 112 113 113 113 114 115 115 113 112 110 110 110 109 109 112 114 116 119 122 125
289 299 286 138 116 106 106 95 90 94 92 106 116 121 138 141 137 125 121 109 112 121 127 133 133 133 131 121 118 119 119 121 123 125 126 124 122 121 122 117 114 116 116 118 122 125 129 136 151
284 291 286 130 121 117 116 109 104 107 108 88 88 120 135 142 139 134 125 117 116 116 122 132 134 144 140 133 131 133 132 134 138 139 141 145 145 136 136 117 125 126 130 135 141 146 150 160 186
238 259 260 92 104 114 116 116 123 124 115 105 102 117 133 142 143 144 141 136 135 129 128 132 134 139 138 133 139 149 148 153 163 144 160 177 147 132 123 130 138 145 151 158 169 172 177 195 192
232 236 173 103 104 111 123 127 115 118 124 125 128 134 142 147 151 151 149 146 142 138 137 132 124 130 130 129 144 140 134 145 144 137 154 155 138 138 133 150 153 167 177 186 176 189 202 192 194
234 228 146 100 110 124 130 123 116 111 106 121 133 141 147 153 157 158 151 147 146 146 141 133 119 118 107 116 124 140 142 147 135 137 166 140 134 133 135 156 170 168 175 175 177 183 157 167 180
222 224 155 136 142 147 142 132 117 109 115 125 136 145 154 159 162 158 151 149 145 145 143 127 124 114 98 91 135 139 142 141 129 145 149 146 143 120 109 94 111 173 159 162 168 136 131 129 85
225 215 196 180 165 165 164 156 138 131 130 135 143 152 161 163 163 159 158 153 150 151 144 135 136 129 125 126 102 114 125 121 133 143 139 140 112 107 113 141 209 266 123 123 140 137 122 123 100
251 232 208 198 192 180 175 175 150 143 145 148 152 158 165 166 168 165 163 159 158 155 148 146 150 143 148 161 180 153 146 147 138 129 137 148 135 132 161 172 188 186 152 139 143 140 127 158 169
232 232 223 200 192 173 175 201 172 157 156 157 159 161 166 169 172 167 162 164 162 158 152 160 163 152 157 168 187 157 154 134 134 138 143 150 138 149 173 207 177 149 144 153 158 157 151 139 130
217 218 220 198 186 175 170 183 191 185 168 165 165 167 169 171 176 167 165 169 166 157 153 163 159 155 163 168 176 182 139 134 147 143 142 155 162 166 173 236 64 160 168 163 171 119 164 148 153
215 208 210 208 184 185 180 178 188 190 176 174 171 172 172 175 178 171 171 172 166 156 155 162 163 159 163 165 172 193 166 160 172 148 147 154 171 178 180 180 189 235 160 96 85 118 178 175 222
248 232 218 211 179 193 196 180 193 189 185 175 173 172 172 177 179 172 173 172 166 160 161 167 173 168 170 173 179 185 181 180 180 181 169 168 186 181 186 205 176 207 161 173 183 161 213 217 196
246 246 233 215 184 199 212 204 191 198 197 175 178 181 175 176 177 170 172 174 171 167 168 172 177 176 183 179 179 182 177 184 187 187 165 180 186 183 193 189 193 193 179 201 209 174 217 241 187
234 238 234 215 194 207 226 225 205 198 197 183 185 183 179 180 176 173 176 178 176 174 176 182 182 180 188 179 177 184 171 202 190 168 172 186 187 195 207 185 196 188 194 196 213 206 205 237 247
233 232 244 237 219 226 238 240 214 204 205 196 194 187 184 182 176 175 178 180 181 177 179 179 180 181 185 185 188 188 188 196 199 186 183 185 194 204 203 199 197 201 209 198 215 203 203 213 239
242 240 244 251 244 245 235 241 225 201 202 205 198 193 190 190 179 177 180 178 181 178 178 179 178 181 183 192 195 196 198 192 192 193 187 185 198 213 213 199 197 203 213 210 216 198 205 211 228
241 241 242 248 250 243 243 239 236 213 208 206 192 187 190 200 182 176 178 172 178 179 178 177 177 183 185 192 197 199 200 192 196 199 191 191 199 211 216 204 195 199 211 212 209 216 215 216 230
223 221 212 218 227 241 241 239 203 182 204 209 190 186 185 190 183 174 173 168 172 178 178 176 175 184 189 194 199 198 198 197 203 206 206 203 206 205 208 205 191 201 214 218 210 213 222 218 223
216 224 226 225 228 239 235 230 198 181 180 197 173 172 166 176 176 169 166 166 171 178 177 174 174 182 188 194 197 196 192 199 207 208 210 209 215 211 188 184 191 202 212 219 209 217 217 215 218
214 228 240 250 265 256 229 221 182 170 166 165 164 160 160 163 163 163 161 162 165 172 173 174 169 175 183 190 189 191 194 203 207 192 203 220 217 214 187 182 191 203 212 217 210 221 223 213 213
228 225 239 246 265 270 246 210 205 168 162 163 172 158 152 151 158 156 152 152 159 164 162 164 164 171 179 185 191 191 192 196 191 196 211 216 215 218 183 191 199 206 210 209 216 225 222 219 224
218 223 234 245 244 251 264 296 279 165 159 165 163 151 150 157 157 146 146 150 157 161 158 162 163 165 175 183 186 184 181 186 186 197 205 207 209 209 205 205 209 217 219 217 218 231 228 225 232
221 228 224 237 244 256 256 251 287 183 159 164 148 134 121 125 135 137 138 138 146 152 157 158 160 166 173 175 175 179 176 176 182 195 197 195 198 204 207 204 209 223 224 219 218 228 233 231 236